Weather History for Kingsville NAS, TX

Change the Weather History Date:

Saturday, October 6, 2012

  Actual Average Record
Temperature  
Mean Temperature 76 °F -  
Max Temperature 91 °F 83 °F 95 °F (2011)
Min Temperature 63 °F 65 °F 57 °F (2010)
Cooling Degree Days 12    
Growing Degree Days 26 (Base 50)    
Moisture  
Dew Point 65 °F    
Average Humidity 72    
Maximum Humidity 100    
Minimum Humidity 42    
Precipitation  
Precipitation 0.00 in - - ()
Sea Level Pressure  
Sea Level Pressure 29.95 in    
Wind  
Wind Speed 5 mph (ESE)    
Max Wind Speed 14 mph    
Max Gust Speed 20 mph    
Visibility 9 miles    
Events      
Averages and records for this station are not official NWS values.
T = Trace of Precipitation, MM = Missing Value Source: NWS Daily Summary

Daily Weather History Graph

Daily Weather History Graph

Search for Another Location

Airport:

Trip Planner

Search our weather history database for the weather conditions in past years. The results will help you decide how hot, cold, wet, or windy it might be!

Date:

Astronomy

Oct. 06, 2012 Rise Set
Actual Time 7:26 AM CDT 7:11 PM CDT
Civil Twilight 7:03 AM CDT 7:34 PM CDT
Nautical Twilight 6:36 AM CDT 8:01 PM CDT
Astronomical Twilight 6:09 AM CDT 8:28 PM CDT
Moon 11:50 PM CDT (10/6) 12:58 PM CDT (10/6)
Length of Visible Light 12h 31m
Length of Day
11h 44m
Waning Gibbous, 65% of the Moon is Illuminated
Oct 6
Waning Gibbous
Oct 8
Last Quarter
Oct 15
New
Oct 21
First Quarter
Oct 29
Full

Hourly Weather History & Observations

Time (CDT) Temp. Heat Index Dew Point Humidity Pressure Visibility Wind Dir Wind Speed Gust Speed Precip Events Conditions
12:56 AM 68.0 °F - 66.0 °F 93% 29.96 in 10.0 mi SSW 4.6 mph - N/A   Clear
1:56 AM 69.1 °F - 66.0 °F 90% 29.96 in 10.0 mi SSW 3.5 mph - N/A   Clear
2:56 AM 68.0 °F - 64.9 °F 90% 29.95 in 10.0 mi SSW 3.5 mph - N/A   Clear
3:56 AM 66.0 °F - 64.9 °F 96% 29.94 in 9.0 mi Calm Calm - N/A   Clear
4:56 AM 64.9 °F - 64.0 °F 97% 29.94 in 7.0 mi Calm Calm - N/A   Partly Cloudy
5:56 AM 64.0 °F - 64.0 °F 100% 29.95 in 7.0 mi SE 3.5 mph - N/A   Scattered Clouds
6:56 AM 63.0 °F - 62.1 °F 97% 29.97 in 8.0 mi Calm Calm - N/A   Clear
7:56 AM 64.0 °F - 63.0 °F 96% 29.98 in 5.0 mi NNE 5.8 mph - N/A   Partly Cloudy
8:56 AM 71.1 °F - 66.9 °F 87% 29.99 in 9.0 mi Calm Calm - N/A   Clear
9:56 AM 78.1 °F - 66.9 °F 68% 30.01 in 10.0 mi South 3.5 mph - N/A   Clear
10:56 AM 82.9 °F 85.4 °F 66.9 °F 58% 30.00 in 10.0 mi ESE 8.1 mph - N/A   Clear
11:56 AM 84.9 °F 87.6 °F 66.9 °F 55% 29.99 in 10.0 mi ESE 8.1 mph - N/A   Mostly Cloudy
12:56 PM 86.0 °F 87.6 °F 64.9 °F 49% 29.96 in 10.0 mi ESE 9.2 mph - N/A   Mostly Cloudy
1:56 PM 88.0 °F 89.6 °F 64.9 °F 46% 29.94 in 10.0 mi SE 10.4 mph 17.3 mph N/A   Scattered Clouds
2:56 PM 90.0 °F 91.3 °F 64.0 °F 42% 29.91 in 10.0 mi East 8.1 mph 16.1 mph N/A   Partly Cloudy
3:56 PM 90.0 °F 91.3 °F 64.0 °F 42% 29.89 in 10.0 mi East 12.7 mph 18.4 mph N/A   Clear
4:56 PM 89.1 °F 91.0 °F 64.9 °F 45% 29.88 in 10.0 mi ESE 13.8 mph 19.6 mph N/A   Clear
5:56 PM 86.0 °F 87.6 °F 64.9 °F 49% 29.89 in 10.0 mi East 10.4 mph - N/A   Clear
6:56 PM 82.0 °F 83.8 °F 64.9 °F 56% 29.91 in 10.0 mi East 11.5 mph - N/A   Clear
7:56 PM 79.0 °F - 66.0 °F 64% 29.93 in 10.0 mi East 9.2 mph - N/A   Clear
8:56 PM 75.9 °F - 66.0 °F 71% 29.94 in 10.0 mi ENE 6.9 mph - N/A   Clear
9:56 PM 73.0 °F - 64.9 °F 76% 29.96 in 10.0 mi NE 5.8 mph - N/A   Clear
10:56 PM 72.0 °F - 64.9 °F 78% 29.97 in 10.0 mi ENE 4.6 mph - N/A   Clear
11:56 PM 71.1 °F - 64.9 °F 81% 29.98 in 10.0 mi NNE 4.6 mph - N/A   Partly Cloudy